Regional Weather Roundup
Issued by NWS Northern Indiana

Home | Current Version | Previous Version | Text Only | Print | Product List | Glossary Off
Versions: 1 2 3 4 5 6 7 8 9 10 11 12 13 14 15 16 17 18 19 20 21 22 23 24 25 26 27 28 29 30 31 32 33 34 35 36 37 38 39 40 41 42 43 44 45 46 47 48 49 50

000
ASUS43 KIWX 211010
RWRIWX

KIWX WEATHER ROUNDUP
NATIONAL WEATHER SERVICE NORTHERN INDIANA
600 AM EDT THU AUG 21 2014

NOTE: "FAIR" INDICATES FEW OR NO CLOUDS BELOW 12,000 FEET WITH NO
SIGNIFICANT WEATHER AND/OR OBSTRUCTIONS TO VISIBILITY.

* THESE STATIONS ARE NOT UNDER NWS QUALITY CONTROL. THEY ALSO MAY NOT
  REPORT WEATHER SUCH AS PRECIPITATION OR FOG.

INZ001>027-211100-
NORTHERN INDIANA

CITY           SKY/WX    TMP DP  RH WIND       PRES   REMARKS
GARY*          LGT RAIN  72  68  88 S9        29.98R
VALPARAISO     MOCLDY    69  67  93 S5        29.96F
MICHIGAN CITY* RAIN      68  63  83 S6        29.96R
LAPORTE*       RAIN      68  68 100 SW5       29.96F
KNOX*          MOCLDY    67  64  90 CALM      29.97S
SOUTH BEND     PTCLDY    70  66  87 SW7       29.97S
GOSHEN         MOCLDY    69  66  90 SW5       29.98R
MONTICELLO*    CLOUDY    69  69  98 SE3       29.97F
LOGANSPORT*    MOCLDY    68  66  94 SW3       29.99S FOG
ROCHESTER*     CLOUDY    72  70  94 S5        29.97F
WARSAW*        CLOUDY    70  66  88 W5        29.97F
ANGOLA*        CLEAR     70  63  78 W3        29.98S
FORT WAYNE     CLOUDY    70  67  90 W5        29.98F
HUNTINGTON*    CLOUDY    69  68  95 W3        29.98S
PERU/GRISSOM   CLOUDY    69  69 100 S8        29.98F
MARION*        CLOUDY    68  67  98 CALM      30.00F

$$
INZ028>050-211100-
CENTRAL INDIANA

CITY           SKY/WX    TMP DP  RH WIND       PRES   REMARKS
LAFAYETTE      CLOUDY    69  68  96 SE3       29.98S
KOKOMO*        CLOUDY    68  66  94 SW5       30.00S
MUNCIE*        CLOUDY    70  67  90 CALM      30.01S
INDIANAPOLIS   TSTM      71  68  90 S5        29.99F

$$
MIZ043>046-050>051-056>058-064>065-071>073-077>080-211100-
SOUTHWEST LOWER MICHIGAN

CITY           SKY/WX    TMP DP  RH WIND       PRES   REMARKS
BATTLE CREEK   CLEAR     68  64  87 SW5       29.96S
BENTON HARBOR  PTCLDY    68  67  96 SE3       29.95S
COLDWATER*     CLEAR     70  69  96 SW7       29.97S FOG
HILLSDALE*     PTCLDY    69  69 100 CALM      29.97F FOG
HOLLAND        PTCLDY    66  63  90 SE3       29.95S
GRAND RAPIDS   PTCLDY    64  64 100 NE3       29.95F
KALAMAZOO      CLEAR     69  67  93 SW7       29.96F FOG
STURGIS*       PTCLDY    66  66 100 SW5       29.97S
THREE RIVERS*  FAIR      69  68  96 SW5       29.97S

$$
OHZ001>008-015>018-024>025-211100-
NORTHWEST OHIO

CITY           SKY/WX    TMP DP  RH WIND       PRES   REMARKS
WAUSEON*       FAIR      68  68 100 SW6       29.97S FOG
DEFIANCE       PTCLDY    69  66  90 CALM      29.98S
FINDLAY        MOCLDY    70  66  87 W7        29.98R
TOLEDO EXPRESS CLEAR     67  65  93 W5        29.96S
TOLEDO METCALF PTCLDY    67  64  90 SW3       29.97S
LIMA           CLOUDY    71  66  84 SW8       30.01R

$$
&&



USA.gov is the U.S. government's official web portal to all federal, state and local government web resources and services.